TimeCDT,TemperatureF,Dew PointF,Humidity,Sea Level PressureIn,VisibilityMPH,Wind Direction,Wind SpeedMPH,Gust SpeedMPH,PrecipitationIn,Events,Conditions,WindDirDegrees,DateUTC
12:15 AM,68.2,52.5,57,29.68,10.0,SSE,17.3,-,N/A,,Mostly Cloudy,160,2013-09-24 05:15:00
12:35 AM,67.6,52.3,58,29.68,10.0,SSE,15.0,21.9,N/A,,Mostly Cloudy,160,2013-09-24 05:35:00
12:55 AM,67.1,52.5,59,29.68,10.0,SSE,12.7,19.6,N/A,,Mostly Cloudy,160,2013-09-24 05:55:00
1:15 AM,66.2,52.5,61,29.68,10.0,South,13.8,21.9,N/A,,Scattered Clouds,170,2013-09-24 06:15:00
1:35 AM,65.8,52.7,62,29.68,10.0,South,10.4,-,N/A,,Clear,170,2013-09-24 06:35:00
1:55 AM,64.9,52.7,64,29.68,10.0,South,11.5,18.4,N/A,,Clear,180,2013-09-24 06:55:00
2:35 AM,62.8,53.1,71,29.68,10.0,SSW,8.1,-,N/A,,Clear,200,2013-09-24 07:35:00
2:55 AM,61.0,52.9,75,29.68,10.0,SSW,5.8,-,N/A,,Clear,200,2013-09-24 07:55:00
3:15 AM,59.5,52.7,78,29.68,10.0,South,4.6,-,N/A,,Clear,190,2013-09-24 08:15:00
3:35 AM,59.0,52.7,80,29.68,10.0,South,5.8,-,N/A,,Clear,190,2013-09-24 08:35:00
3:55 AM,57.7,52.7,83,29.69,10.0,SSE,3.5,-,N/A,,Scattered Clouds,160,2013-09-24 08:55:00
4:35 AM,60.1,54.1,81,29.70,10.0,SSE,3.5,-,N/A,,Overcast,160,2013-09-24 09:35:00
4:55 AM,59.9,54.1,81,29.70,10.0,Calm,Calm,-,N/A,,Overcast,0,2013-09-24 09:55:00
5:15 AM,59.9,54.1,81,29.71,10.0,Calm,Calm,-,N/A,,Overcast,0,2013-09-24 10:15:00
5:35 AM,59.9,54.5,82,29.71,10.0,Calm,Calm,-,N/A,,Overcast,0,2013-09-24 10:35:00
5:55 AM,59.5,54.5,83,29.72,10.0,Calm,Calm,-,N/A,,Overcast,0,2013-09-24 10:55:00
6:15 AM,60.1,54.7,82,29.73,10.0,Calm,Calm,-,N/A,,Overcast,0,2013-09-24 11:15:00
6:35 AM,60.1,55.0,83,29.73,10.0,Calm,Calm,-,N/A,,Overcast,0,2013-09-24 11:35:00
6:55 AM,59.0,54.9,86,29.74,10.0,Calm,Calm,-,N/A,,Mostly Cloudy,0,2013-09-24 11:55:00
7:15 AM,58.6,55.8,90,29.75,10.0,Calm,Calm,-,N/A,,Overcast,0,2013-09-24 12:15:00
7:35 AM,58.6,56.1,91,29.75,10.0,Calm,Calm,-,N/A,,Overcast,0,2013-09-24 12:35:00
7:55 AM,58.1,55.8,92,29.76,7.0,WNW,8.1,-,N/A,,Mostly Cloudy,290,2013-09-24 12:55:00
8:15 AM,58.1,55.6,91,29.77,10.0,NW,8.1,-,N/A,,Scattered Clouds,320,2013-09-24 13:15:00
8:35 AM,59.4,55.4,87,29.78,10.0,NNW,10.4,-,N/A,,Clear,330,2013-09-24 13:35:00
8:55 AM,60.3,54.9,82,29.79,10.0,NNW,12.7,-,N/A,,Clear,330,2013-09-24 13:55:00
9:15 AM,61.3,55.4,81,29.81,10.0,NW,12.7,-,N/A,,Scattered Clouds,320,2013-09-24 14:15:00
9:35 AM,62.4,55.8,79,29.83,10.0,NNW,16.1,-,N/A,,Clear,340,2013-09-24 14:35:00
9:55 AM,63.9,56.3,76,29.83,10.0,NNW,16.1,20.7,N/A,,Mostly Cloudy,340,2013-09-24 14:55:00
10:15 AM,63.5,56.1,77,29.85,10.0,NNW,12.7,19.6,N/A,,Overcast,340,2013-09-24 15:15:00
10:35 AM,64.9,56.3,74,29.85,10.0,NNW,16.1,23.0,N/A,,Mostly Cloudy,340,2013-09-24 15:35:00
10:55 AM,65.7,56.1,71,29.86,10.0,North,15.0,23.0,N/A,,Overcast,350,2013-09-24 15:55:00
11:15 AM,68.7,57.4,67,29.86,10.0,NNW,20.7,25.3,N/A,,Overcast,340,2013-09-24 16:15:00
11:35 AM,67.1,56.5,69,29.86,10.0,NNW,17.3,-,N/A,,Overcast,340,2013-09-24 16:35:00
11:55 AM,66.2,56.5,71,29.87,10.0,NNW,18.4,24.2,N/A,,Overcast,330,2013-09-24 16:55:00
12:15 PM,67.1,56.3,68,29.87,10.0,NNW,17.3,-,N/A,,Overcast,340,2013-09-24 17:15:00
12:55 PM,70.5,56.1,60,29.87,10.0,North,16.1,20.7,N/A,,Mostly Cloudy,350,2013-09-24 17:55:00
1:15 PM,70.7,55.8,59,29.87,10.0,North,15.0,21.9,N/A,,Mostly Cloudy,10,2013-09-24 18:15:00
1:35 PM,70.0,56.1,61,29.88,10.0,NNW,19.6,24.2,N/A,,Mostly Cloudy,340,2013-09-24 18:35:00
1:55 PM,70.2,55.8,60,29.88,10.0,North,11.5,-,N/A,,Overcast,360,2013-09-24 18:55:00
2:15 PM,68.9,56.3,64,29.88,10.0,NNW,12.7,-,N/A,,Overcast,330,2013-09-24 19:15:00
2:35 PM,68.5,56.5,65,29.88,10.0,NNW,11.5,20.7,N/A,,Overcast,330,2013-09-24 19:35:00
2:55 PM,68.4,57.0,67,29.88,10.0,NNW,12.7,-,N/A,,Overcast,340,2013-09-24 19:55:00
3:15 PM,68.0,56.5,67,29.89,10.0,North,11.5,-,N/A,,Overcast,350,2013-09-24 20:15:00
3:35 PM,68.9,57.2,66,29.89,10.0,North,12.7,-,N/A,,Overcast,350,2013-09-24 20:35:00
3:55 PM,68.5,56.7,66,29.89,10.0,NNW,12.7,18.4,N/A,,Overcast,330,2013-09-24 20:55:00
4:15 PM,68.5,56.7,66,29.89,10.0,NNW,12.7,-,N/A,,Overcast,340,2013-09-24 21:15:00
4:35 PM,69.1,56.5,64,29.89,10.0,North,11.5,-,N/A,,Overcast,350,2013-09-24 21:35:00
4:55 PM,68.4,56.5,66,29.90,10.0,NNW,9.2,-,N/A,,Overcast,340,2013-09-24 21:55:00
5:15 PM,68.0,56.5,67,29.90,10.0,NNW,10.4,-,N/A,,Overcast,340,2013-09-24 22:15:00
5:35 PM,68.0,56.3,66,29.90,10.0,NNW,9.2,-,N/A,,Overcast,340,2013-09-24 22:35:00
5:55 PM,67.5,56.3,67,29.90,10.0,NNW,8.1,-,N/A,,Overcast,330,2013-09-24 22:55:00
6:15 PM,67.3,56.1,67,29.90,10.0,NW,9.2,-,N/A,,Overcast,320,2013-09-24 23:15:00
6:35 PM,67.1,56.3,68,29.90,10.0,NNW,8.1,-,N/A,,Overcast,330,2013-09-24 23:35:00
6:55 PM,66.2,56.8,72,29.90,10.0,NNW,5.8,-,N/A,,Overcast,340,2013-09-24 23:55:00
7:15 PM,65.3,57.2,75,29.90,10.0,NNW,4.6,-,N/A,,Overcast,340,2013-09-25 00:15:00
7:35 PM,64.4,57.6,78,29.90,10.0,NW,3.5,-,N/A,,Overcast,320,2013-09-25 00:35:00
7:55 PM,64.4,57.2,77,29.90,10.0,NW,4.6,-,N/A,,Overcast,310,2013-09-25 00:55:00
8:15 PM,63.7,57.2,79,29.90,10.0,NW,3.5,-,N/A,,Mostly Cloudy,320,2013-09-25 01:15:00
8:35 PM,61.5,56.7,84,29.91,10.0,NNW,3.5,-,N/A,,Scattered Clouds,340,2013-09-25 01:35:00
8:55 PM,60.1,55.9,86,29.91,10.0,North,4.6,-,N/A,,Clear,10,2013-09-25 01:55:00
9:15 PM,59.7,55.9,87,29.91,10.0,North,3.5,-,N/A,,Clear,10,2013-09-25 02:15:00
9:35 PM,56.7,53.8,90,29.92,10.0,West,3.5,-,N/A,,Clear,280,2013-09-25 02:35:00
9:55 PM,57.0,54.3,91,29.92,10.0,Calm,Calm,-,N/A,,Clear,0,2013-09-25 02:55:00
10:15 PM,56.7,53.6,89,29.91,10.0,Calm,Calm,-,N/A,,Clear,0,2013-09-25 03:15:00
10:35 PM,55.8,53.8,93,29.91,10.0,Calm,Calm,-,N/A,,Clear,0,2013-09-25 03:35:00
10:55 PM,53.4,52.0,95,29.91,7.0,Calm,Calm,-,N/A,,Clear,0,2013-09-25 03:55:00
11:15 PM,55.0,53.2,94,29.91,10.0,Calm,Calm,-,N/A,,Clear,0,2013-09-25 04:15:00
11:35 PM,53.6,51.8,94,29.92,10.0,Calm,Calm,-,N/A,,Clear,0,2013-09-25 04:35:00
11:55 PM,53.6,52.2,95,29.92,10.0,Calm,Calm,-,N/A,,Clear,0,2013-09-25 04:55:00